Lid_Strength_Index
1 -0 -1 -1 -1 -1 -1 -1 -2 -2 -2 -2 -1 -1 -1 -2 -2 -2 -2 -2 -2 -2 -2 -2 -2 -2 -2 -2 -2 -2 -1 -1 -1 -2 -2 -2 -2 -2 -2 -2 -1 -1 -1
0 -0 -1 -1 -1 -2 -1 -2 -2 -2 -2 -1 -1 -1 -1 -2 -2 -2 -2 -2 -2 -2 -2 -2 -2 -2 -2 -2 -2 -1 -1 -1 -2 -2 -2 -2 -2 -2 -2 -2 -2 -1 -2
0 -1 -1 -1 -1 -1 -1 -2 -2 -2 -2 -1 -1 -1 -1 -2 -2 -2 -2 -2 -2 -2 -2 -2 -1 -1 -1 -2 -2 -2 -1 -1 -2 -2 -2 -1 -1 -2 -2 -2 -2 -2 -2
-0 -0 -1 -1 -1 -1 -1 -2 -1 -1 -1 -1 -1 -1 -1 -2 -2 -2 -2 -2 -2 -2 -2 -2 -1 -1 -1 -2 -2 -2 -1 -1 -2 -2 -1 -1 -1 -2 -2 -2 -2 -2 -2
0 -0 -1 -1 -1 -2 -2 -2 -1 -2 -2 -1 -1 -1 -1 -2 -2 -2 -2 -2 -2 -2 -2 -2 -1 -0 -0 -1 -2 -2 -2 -2 -2 -1 0 -0 -0 -1 -2 -2 -2 -2 -2
0 -0 -0 -1 -2 -1 -2 -2 -1 -1 -1 -1 -1 -1 -1 -1 -2 -2 -2 -2 -2 -2 -2 -2 -1 -1 -1 -1 -1 -1 -1 -1 -2 0 -0 -0 -0 -2 -2 -2 -2 -2 -2
1 -0 -1 -1 -1 -1 -2 -2 -2 -2 -2 -2 -2 -2 -2 -1 -1 -2 -2 -2 -2 -2 -2 -2 -1 -1 -1 -1 -1 -1 -0 0 2 1 1 1 0 -2 -2 -2 -2 -2 -2
1 0 -1 1 0 -1 -1 -1 -1 -1 -1 -2 -2 -2 -2 -1 -2 -2 -2 -2 -2 -2 -2 -2 -1 -0 -0 -0 0 0 0 -0 2 3 2 1 -2 -2 -2 -2 -2 -2 -2
1 0 0 -0 0 2 1 -0 -1 -1 -1 -2 -2 -2 -1 -1 -2 -2 -2 -2 -2 -2 -2 -1 -0 0 1 1 2 2 1 0 4 3 2 1 -2 -2 -2 -2 -2 -2 -2
6 5 4 1 0 -0 -0 1 1 -0 -1 -1 -1 -0 0 -0 -1 -1 -1 -2 -2 -2 -2 -1 -1 1 3 3 3 2 2 2 6 5 4 3 -1 -2 -2 -2 -1 -2 -2
5 5 5 5 1 1 -0 1 2 1 1 0 0 1 2 -0 0 1 0 -1 -2 -2 -2 -1 -0 1 3 2 3 3 3 7 7 6 6 1 0 -1 -2 -2 -2 -2 -2
7 6 6 5 5 3 1 0 -0 -0 -0 -0 -0 0 -0 -0 -0 0 1 -0 -1 -1 -2 -1 -0 0 1 5 6 4 7 7 7 7 6 2 1 -0 -1 -2 -2 -2 -2
8 6 6 5 5 4 1 -0 0 0 0 0 -0 0 0 0 1 1 1 1 1 1 0 0 0 1 3 4 5 6 6 7 8 7 5 3 2 1 -0 -1 -2 -2 -2
8 7 5 4 4 4 5 -0 -0 -0 0 1 0 0 0 0 0 1 1 0 0 0 1 0 1 1 2 3 4 5 6 7 8 7 6 4 4 3 1 0 -1 -2 -2
8 6 5 4 3 3 5 -0 0 1 1 2 1 1 0 1 0 0 0 1 1 1 1 1 2 2 4 3 4 5 5 6 6 7 8 5 5 4 3 2 0 -1 -2
6 6 6 3 2 2 2 2 2 3 3 3 3 3 1 1 1 2 2 2 2 2 2 3 3 3 3 4 4 4 5 5 5 6 7 7 4 5 5 3 2 1 -0
7 6 5 4 4 4 4 5 5 4 4 4 3 3 3 2 3 3 3 4 3 3 3 4 4 4 4 4 4 4 5 5 5 5 6 7 6 5 5 4 4 3 3
8 7 5 5 6 6 6 6 6 6 6 5 4 4 3 3 3 4 4 4 4 4 4 4 4 4 4 5 5 5 6 6 6 6 6 6 6 7 6 4 5 4 4
8 7 6 6 7 7 7 7 7 7 7 6 6 6 5 4 4 4 5 5 5 5 5 5 6 6 7 7 7 7 6 6 7 6 6 7 7 8 8 5 5 5 5
7 7 7 7 7 7 8 8 9 8 9 9 9 8 7 7 6 7 6 7 7 7 8 8 6 6 8 9 7 7 6 6 7 8 8 7 8 7 7 8 8 8 5
8 7 7 7 7 6 8 8 9 11 11 11 11 10 10 10 9 9 9 8 9 10 10 9 8 8 9 9 9 9 7 8 8 7 7 8 7 7 7 7 7 7 7
8 8 7 7 6 6 7 8 11 12 12 12 12 12 12 11 11 11 12 12 12 12 12 12 12 10 11 11 11 10 10 8 9 7 8 8 9 9 8 9 7 10 8
9 8 8 7 8 9 10 11 11 12 13 13 14 13 13 12 12 12 13 12 12 13 13 13 13 13 14 13 13 11 13 13 12 10 11 12 12 12 11 10 10 10 8
11 10 9 9 10 10 10 11 12 13 15 15 14 14 13 13 13 13 13 13 13 13 14 14 13 14 14 15 13 12 13 14 13 14 13 13 12 12 12 12 11 10 9
12 12 12 12 12 12 12 12 13 14 14 14 14 14 14 14 14 14 14 14 14 14 14 14 15 14 14 15 14 14 14 14 15 16 18 15 14 13 12 12 12 10 9
14 14 14 14 13 13 13 13 14 15 15 15 15 15 15 15 15 14 14 15 15 15 15 14 14 14 14 14 14 14 14 15 16 16 17 16 17 15 13 12 11 11 9